Regional Weather Roundup
Issued by NWS

Home | Current Version | Previous Version | Text Only | Print | Product List | Glossary Off
Versions: 1 2 3 4 5 6 7 8 9 10 11 12 13 14 15 16 17 18 19 20 21 22 23 24 25 26 27 28 29 30 31 32 33 34 35 36 37 38 39 40 41 42 43 44 45 46 47 48 49 50

000
ASUS43 KOAX 271010
RWRNE

WEATHER ROUNDUP FOR NEBRASKA
NATIONAL WEATHER SERVICE OMAHA NE
500 AM CDT WED MAY 27 2015

NOTES: SATELLITE DATA IS BEING USED TO AUGMENT CLOUD COVER ABOVE
       12000 FEET.
       "FAIR" INDICATES FEW OR NO CLOUDS BELOW 12,000 FEET WITH NO
       SIGNIFICANT WEATHER AND/OR OBSTRUCTIONS TO VISIBILITY.

  * THESE STATIONS DO NOT REPORT WEATHER SUCH AS RAIN...SNOW OR FOG.

NEZ001>004-019>022-054>056-271100-
NEBRASKA PANHANDLE

CITY           SKY/WX    TMP DP  RH WIND       PRES   REMARKS
SCOTTSBLUFF    PTCLDY    53  50  89 E9        30.02F
ALLIANCE       CLOUDY    53  50  89 SE9       30.04S
CHADRON        PTCLDY    54  50  86 SW6       30.01R
KIMBALL          N/A    N/A N/A N/A MISG        N/A
SIDNEY         LGT RAIN  55  52  89 S15       30.05F
$$

NEZ057>060-069>072-079>082-271100-
SOUTHWEST NEBRASKA

CITY           SKY/WX    TMP DP  RH WIND       PRES   REMARKS
NORTH PLATTE   PTCLDY    47  44  90 E5        30.05S
IMPERIAL       CLOUDY    54  49  83 S10       30.06S
LEXINGTON      PTCLDY    47  46  93 NW3       30.06S
MCCOOK         MOCLDY    51  48  89 SW5       30.06R
OGALLALA       MOCLDY    55  49  81 CALM      30.06R
$$

NEZ005>010-023>029-035>040-094-271100-
NORTH CENTRAL NEBRASKA

CITY           SKY/WX    TMP DP  RH WIND       PRES   REMARKS
VALENTINE      CLEAR     48  45  89 CALM      30.03R
AINSWORTH      CLEAR     51  46  83 SW6       30.03S
BROKEN BOW     PTCLDY    49  46  90 CALM      30.04S
O`NEILL        CLEAR     52  49  89 SW5       30.01S
ORD            CLEAR     47  44  90 CALM      30.02R
THEDFORD       PTCLDY    53  47  78 SW8       30.05F
$$

NEZ041-046>049-061>064-073>077-083>087-271100-
SOUTH CENTRAL NEBRASKA

CITY           SKY/WX    TMP DP  RH WIND       PRES   REMARKS
GRAND ISLAND   CLEAR     51  46  83 W5        30.04R
AURORA         CLEAR     50  49  95 W7        30.03S
HASTINGS       CLEAR     53  47  79 SW5       30.04R
HEBRON         CLEAR     50  47  91 CALM      30.04R
HOLDREGE       PTCLDY    53  46  78 CALM      30.06R
KEARNEY *      CLEAR     52  46  82 SW6       30.05S
YORK           CLEAR     50  48  93 W6        30.03R
$$

NEZ011>018-030>034-042>045-271100-
NORTHEAST NEBRASKA

CITY           SKY/WX    TMP DP  RH WIND       PRES   REMARKS
NORFOLK        CLEAR     55  50  83 W7        29.99R
ALBION         CLEAR     50  46  88 CALM      30.02R
BLAIR          CLEAR     56  51  83 W6        29.99R
COLUMBUS *       N/A    N/A N/A N/A MISG        N/A
FREMONT        CLEAR     54  51  91 W5        30.00R
TEKAMAH        CLEAR     53  51  93 SW5       29.98R
WAYNE          CLEAR     49  48  95 S3        29.99R
$$

NEZ050>053-065>068-078-088>093-271100-
SOUTHEAST NEBRASKA

CITY           SKY/WX    TMP DP  RH WIND       PRES   REMARKS
LINCOLN        CLEAR     51  47  86 N3        30.02R
OMAHA EPPLEY   CLEAR     55  53  93 CALM      30.00R
BEATRICE       CLEAR     51  50  94 CALM      30.03R
FALLS CITY     CLEAR     57  52  83 W7        30.00R
NEBRASKA CITY  CLEAR     57  50  78 W10       30.01R
PLATTSMOUTH    CLEAR     56  50  82 W6        30.01R
$$

NEZ044-045-051>053-067-271100-
OMAHA AREA

CITY           SKY/WX    TMP DP  RH WIND       PRES   REMARKS
OMAHA EPPLEY   CLEAR     55  53  93 CALM      30.00R
BLAIR          CLEAR     56  51  83 W6        29.99R
FREMONT        CLEAR     54  51  91 W5        30.00R
MILLARD        CLEAR     52  51  97 CALM      30.00R FOG
OFFUTT AFB     CLEAR     55  52  90 W5        29.99R
PLATTSMOUTH    CLEAR     56  50  82 W6        30.01R
WAHOO          FAIR      56  51  82 SW3       30.01R
$$


USA.gov is the U.S. government's official web portal to all federal, state and local government web resources and services.